Location: Friaudour
(46.0460°N, 1.2873°E)
Time: 10:24:26
(UTC+00:00)

Cosmos 405 Rocket - Pass Details

Date: 14 July 2020
Orbit: 489 x 555 km, 81.3° (Epoch: 05 August)

Event Time Altitude Azimuth Distance (km) Brightness Sun altitude
Exits shadow 00:52:57 35° 111° (ESE) 835 3.6 -21.3°
Maximum altitude 00:53:23 37° 95° (E) 814 3.7 -21.3°
Drops below altitude 10° 00:56:53 10° 27° (NNE) 1,724 6.4 -21.1°
Sets 00:59:05 0° 19° (NNE) 2,604 7.8 -21.0°
